Wind_Speed
2 2 2 2 3 3 3 3 4 4 5 6 6 6 6 7 7 5 4 1 2 4 7 10 12 12 11 11 11 12 14 14 15 15 14 13 10 8 6 4 3 3 4 4 5 6 8 10 12
1 1 1 2 3 3 3 3 4 5 6 7 7 7 7 7 7 5 3 1 1 2 5 8 10 10 10 11 11 12 13 13 14 14 14 13 11 9 7 5 4 4 4 4 4 5 7 9 12
1 1 1 2 3 3 2 3 3 5 6 7 8 8 8 8 8 6 3 1 2 2 3 5 7 9 9 10 10 11 12 12 13 14 14 13 12 11 9 7 5 4 4 4 4 5 6 8 11
3 3 2 1 3 3 1 2 3 5 6 7 8 8 9 9 8 6 4 1 2 2 2 2 5 7 8 9 9 10 11 12 12 13 14 14 13 13 11 10 7 6 4 4 4 4 5 6 8
5 4 3 1 2 2 1 1 3 4 6 7 7 8 9 9 9 7 5 2 1 2 2 1 3 5 7 8 8 9 9 10 11 12 12 13 14 14 13 12 9 7 5 4 4 4 5 4 4
7 6 4 3 1 1 1 1 2 4 6 7 8 9 10 10 9 7 5 2 1 3 3 2 1 3 5 6 7 7 8 9 10 10 11 12 13 14 14 13 10 8 5 4 4 4 4 4 2
9 8 6 5 3 2 2 1 2 4 6 7 9 9 9 10 9 8 6 3 1 2 3 3 2 2 3 4 6 7 7 8 8 9 10 10 12 13 14 14 12 9 6 4 3 3 3 3 2
10 9 7 5 3 3 2 2 3 4 5 7 8 8 8 9 9 9 7 5 2 2 3 4 4 4 4 4 5 7 8 8 8 8 8 9 10 12 13 14 13 11 8 5 3 2 3 3 2
11 10 9 7 5 6 4 2 2 4 4 5 6 7 8 8 8 8 7 6 4 3 4 5 6 6 6 6 6 7 8 9 9 7 7 7 8 9 11 12 13 11 9 6 3 2 3 4 4
13 12 12 11 10 9 7 5 5 5 5 5 5 5 6 7 7 7 7 7 6 5 5 6 8 8 9 9 9 9 10 10 10 9 7 6 7 7 9 10 10 10 9 6 3 2 4 6 6
15 15 14 14 13 11 10 9 9 9 9 7 6 6 6 7 8 8 8 8 7 6 6 7 9 10 11 12 12 12 12 12 11 10 9 7 6 6 7 8 9 9 8 7 5 3 4 6 8
17 17 16 15 15 15 14 14 12 12 12 11 10 9 9 10 10 11 11 11 10 9 9 9 10 12 13 14 14 14 14 13 12 11 10 9 7 6 6 6 7 8 8 7 6 5 4 5 7
19 18 17 17 18 18 18 17 16 16 15 14 13 13 13 13 13 14 15 16 15 14 13 13 13 14 15 16 16 16 15 15 14 12 11 10 9 8 7 6 6 7 7 7 7 6 5 6 7
20 20 20 20 21 21 21 21 20 20 19 17 16 16 16 15 16 17 18 18 19 18 17 17 16 17 17 17 17 17 16 15 14 13 12 12 11 11 10 8 8 8 8 9 9 8 7 7 8
23 23 23 24 24 25 25 23 24 24 23 22 20 20 19 18 18 19 20 20 20 21 20 19 19 18 18 18 18 18 17 16 15 14 13 13 13 13 12 12 11 10 10 11 12 11 11 10 10
27 27 28 28 29 29 29 27 28 28 27 26 25 23 22 22 21 21 21 22 22 22 22 21 20 19 19 19 18 17 16 15 14 14 14 14 14 14 15 14 12 12 13 14 15 15 15 14 13
31 32 32 32 33 34 33 31 31 32 31 30 30 28 26 25 23 23 23 23 24 24 24 23 21 20 20 19 19 18 17 16 15 15 15 15 16 16 16 15 14 15 16 17 18 18 17 17 16
34 35 35 36 37 37 37 36 34 36 36 35 35 34 31 29 27 27 26 25 25 25 25 25 23 22 21 20 20 19 18 16 16 16 16 17 18 18 17 17 17 18 20 20 21 21 20 19 19
35 36 37 38 39 40 40 39 38 40 41 40 40 38 36 34 32 31 29 28 26 26 26 25 25 24 23 22 21 20 19 18 17 17 18 18 19 18 17 19 20 22 23 23 23 23 23 22 21
33 35 37 39 40 41 41 41 41 43 44 44 43 42 40 38 36 33 31 29 28 28 27 27 27 27 26 25 23 22 21 20 20 19 19 19 19 19 20 21 22 24 24 25 25 25 25 24 23
32 34 36 38 40 41 42 41 42 44 45 46 45 45 43 41 39 36 34 32 30 30 28 28 29 30 29 28 26 25 24 23 22 21 20 20 20 20 21 22 24 25 25 26 27 27 27 26 26
32 34 35 36 37 38 38 39 38 40 42 43 44 44 43 41 39 36 34 32 31 30 30 31 32 33 33 31 32 29 27 25 23 21 21 22 22 22 22 23 24 25 26 26 27 27 28 28 28
34 35 36 36 36 37 35 37 35 35 36 37 39 40 40 39 37 36 34 33 32 32 32 34 36 36 35 36 34 31 28 25 23 22 22 22 22 23 24 24 24 25 25 26 27 27 28 28 30
40 40 41 40 39 38 35 35 35 33 32 32 33 34 35 35 34 34 35 34 34 34 34 35 37 38 38 40 36 32 28 24 21 21 21 22 22 23 24 24 24 24 25 26 27 27 27 28 29
43 44 44 43 41 38 35 34 33 31 29 28 28 29 30 31 32 33 35 35 36 36 36 37 39 40 41 41 35 30 24 21 19 20 20 21 22 23 24 24 24 24 24 25 26 26 27 27 28
45 44 42 42 40 37 34 32 30 28 26 25 26 26 27 29 31 33 34 35 36 36 37 39 41 39 39 38 30 24 20 18 18 18 20 21 22 23 23 24 23 23 24 25 26 26 25 25 26
42 40 39 38 37 33 30 28 26 25 24 23 24 24 25 26 29 31 32 34 36 35 36 37 38 37 35 28 21 18 17 17 17 18 19 21 22 23 23 23 24 24 24 25 25 25 24 24 24
32 28 25 24 24 23 22 19 18 20 20 21 22 22 23 25 26 28 30 31 31 33 33 32 32 30 25 19 14 13 15 16 18 19 20 22 23 24 24 25 25 25 25 25 25 24 23 23 23
22 18 15 13 13 14 14 14 12 13 13 15 16 18 19 21 22 24 26 28 28 27 27 24 20 18 14 12 12 12 14 17 19 20 21 23 24 25 26 26 26 26 26 25 24 23 22 22 21
17 12 8 5 6 8 7 6 7 9 8 9 10 10 12 14 16 15 16 17 16 15 15 13 9 8 8 9 10 12 15 18 20 22 23 24 25 26 27 27 27 26 25 24 23 22 22 21 21
Wind_Direction
108 67 50 41 38 39 22 1 357 4 10 13 9 8 0 350 348 338 329 333 64 62 49 41 36 38 42 44 44 43 41 38 33 30 26 25 24 21 15 4 350 329 307 286 270 261 256 251 247
117 46 8 11 20 14 19 8 17 31 30 25 16 13 7 358 358 349 328 271 192 88 56 41 34 36 40 44 44 43 42 38 33 28 27 29 30 28 21 9 356 344 325 307 286 273 268 258 248
194 221 272 340 15 16 19 25 50 50 40 31 21 16 10 6 6 1 346 264 200 149 80 46 35 34 38 41 41 40 39 36 32 28 29 31 33 33 29 21 9 358 344 324 304 290 286 268 250
224 234 246 316 22 28 35 51 65 53 43 34 21 12 10 8 8 6 359 330 200 177 134 67 40 35 36 37 35 33 32 32 31 30 30 33 35 33 31 27 20 11 358 341 321 307 306 282 250
234 238 244 285 27 35 27 56 51 43 34 24 17 11 10 10 8 6 4 355 209 189 171 129 47 36 33 31 30 27 25 26 29 33 34 36 38 37 34 29 23 15 1 343 329 322 324 311 256
241 247 250 266 322 355 341 12 37 39 35 26 20 16 15 16 14 7 2 359 222 201 193 195 21 24 24 24 23 20 19 21 26 33 37 39 41 41 37 32 26 19 4 346 333 328 334 338 274
246 256 264 277 296 324 324 327 18 38 34 28 22 18 16 21 22 15 5 1 308 217 210 219 259 311 348 2 6 5 6 9 17 26 33 38 43 43 41 36 30 23 13 355 338 329 324 334 299
249 260 269 279 285 316 323 329 360 21 21 25 24 18 14 19 23 21 13 7 352 275 243 243 260 274 292 316 332 343 348 353 360 9 20 30 39 43 43 39 34 28 21 10 348 317 290 286 274
251 257 264 269 277 303 306 305 319 341 352 5 13 11 9 13 16 15 11 8 358 327 288 272 270 274 279 288 300 314 324 331 337 345 357 13 28 37 41 40 38 34 28 19 1 297 263 259 252
250 254 258 263 276 293 293 294 289 292 304 321 340 346 349 357 360 359 357 355 351 338 314 294 283 279 278 281 286 294 305 312 318 324 330 347 9 25 34 36 36 34 31 24 8 299 259 251 247
250 252 255 264 272 280 288 295 288 281 281 286 295 307 319 328 334 335 335 332 331 326 315 304 293 285 281 280 282 286 292 299 305 309 312 321 337 358 18 28 30 28 26 22 10 330 279 258 249
252 253 255 263 271 277 281 289 288 286 285 282 281 284 293 305 314 320 321 320 318 315 308 301 297 291 285 281 280 282 285 289 294 297 299 302 309 322 340 0 12 15 15 12 5 345 309 276 257
250 255 258 262 266 271 274 279 281 284 283 281 278 279 284 293 300 307 310 313 312 311 305 299 295 292 287 284 281 279 280 283 286 287 290 291 292 298 305 319 335 348 356 356 346 334 316 292 268
252 255 258 260 263 265 269 272 274 273 274 274 275 276 279 287 293 298 301 304 306 306 303 300 295 291 287 283 281 277 274 275 277 280 282 282 282 282 284 294 306 318 329 330 328 318 306 295 282
255 257 259 260 261 261 264 266 268 268 269 269 269 270 274 280 286 291 295 296 298 299 299 298 294 290 286 281 279 274 268 268 270 274 277 278 277 277 277 283 290 298 305 310 311 310 302 292 285
254 256 257 259 261 262 263 264 266 268 268 268 268 268 271 275 279 281 286 290 292 293 294 293 289 286 282 279 275 270 266 263 265 270 273 275 275 275 273 275 281 286 289 294 296 297 296 294 289
254 257 258 260 262 264 265 265 265 267 267 268 268 268 269 272 274 275 280 285 288 289 288 287 283 279 276 273 270 265 262 259 262 267 273 274 273 274 271 270 272 276 280 284 286 286 287 288 289
259 261 262 263 264 265 267 267 267 268 267 266 267 267 268 270 272 276 279 282 285 286 283 281 277 272 270 267 265 262 259 257 259 265 271 273 273 274 270 268 270 273 277 279 279 279 280 281 283
265 266 267 267 268 268 268 269 268 267 267 265 265 266 267 269 272 274 277 278 281 281 280 276 272 268 265 262 260 259 258 258 259 264 268 269 268 268 265 266 269 273 276 279 280 280 280 278 279
270 270 271 270 270 270 269 268 267 266 266 266 266 266 267 269 270 271 273 274 277 276 274 270 268 265 262 259 256 254 255 257 259 261 262 263 263 262 264 267 271 273 275 276 277 278 280 278 278
273 273 273 273 273 272 271 269 267 266 266 266 266 265 265 265 266 267 269 270 270 269 267 263 261 260 258 258 254 249 249 252 255 257 259 258 260 262 265 268 271 272 273 273 273 275 275 277 278
274 274 275 275 275 275 274 273 267 267 267 267 266 265 265 264 264 262 263 263 262 260 257 254 254 254 254 255 251 244 242 246 250 254 258 260 262 264 266 268 271 272 273 272 272 272 273 274 275
277 276 275 275 275 275 276 277 274 272 270 269 267 265 263 262 260 258 257 256 255 253 250 247 250 251 250 250 247 243 239 240 243 250 257 261 264 268 272 273 274 275 275 274 273 273 273 271 271
281 280 278 276 275 276 277 279 278 277 275 272 268 264 261 258 255 252 251 250 249 246 245 245 247 249 248 246 246 243 239 235 239 247 254 260 265 271 274 276 278 279 279 279 277 276 275 272 270
287 286 284 281 279 280 280 280 280 279 277 273 266 260 256 252 249 246 245 244 242 241 241 243 245 247 245 246 246 243 240 237 242 249 256 263 268 274 277 279 281 283 283 283 282 280 278 275 271
289 287 285 283 282 282 281 279 279 277 273 271 265 259 253 248 244 242 242 241 240 239 240 241 243 243 243 245 243 244 245 244 249 255 260 268 274 277 279 282 285 287 288 287 285 284 282 278 274
294 288 284 281 279 276 274 274 274 269 268 267 264 258 252 248 245 241 241 241 240 238 238 241 242 240 241 241 245 247 250 254 259 264 271 277 281 283 285 288 290 290 290 289 288 286 284 280 275
303 297 290 280 273 267 266 266 266 262 264 267 268 262 256 252 247 243 241 241 238 238 238 242 242 239 235 236 242 249 253 258 267 275 282 285 287 288 290 292 293 292 289 288 287 286 284 281 277
315 310 299 282 264 253 254 256 255 255 262 268 269 267 262 255 250 250 247 244 242 240 240 237 237 228 231 240 247 253 261 272 281 285 288 290 289 289 291 292 292 292 289 286 284 283 283 279 276
332 326 315 298 248 237 237 234 243 255 261 272 282 274 266 256 256 261 251 248 242 229 225 223 213 214 226 241 255 268 276 283 286 288 288 290 289 288 289 289 290 290 288 284 282 280 279 277 273
Height
5890 5891 5892 5893 5894 5894 5893 5893 5892 5892 5892 5891 5891 5891 5891 5891 5891 5894 5891 5890 5891 5891 5891 5890 5890 5889 5889 5888 5887 5887 5886 5885 5884 5883 5882 5881 5880 5880 5880 5880 5880 5881 5881 5882 5882 5883 5884 5885 5886
5891 5892 5893 5894 5894 5894 5894 5893 5893 5892 5892 5892 5891 5891 5890 5890 5890 5890 5890 5890 5891 5891 5891 5891 5891 5890 5889 5889 5888 5887 5886 5886 5885 5884 5883 5882 5881 5880 5879 5879 5880 5880 5880 5881 5881 5882 5883 5883 5884
5891 5892 5894 5894 5894 5894 5895 5894 5893 5893 5893 5892 5892 5891 5891 5890 5890 5890 5890 5890 5891 5891 5892 5892 5892 5891 5890 5889 5889 5888 5887 5886 5886 5885 5883 5882 5881 5880 5879 5879 5879 5880 5880 5880 5881 5881 5881 5881 5881
5891 5893 5894 5895 5894 5895 5895 5894 5893 5893 5893 5893 5892 5891 5891 5890 5890 5889 5889 5890 5890 5891 5891 5892 5892 5892 5891 5890 5889 5889 5888 5887 5886 5885 5884 5883 5881 5880 5879 5879 5879 5879 5879 5879 5880 5880 5880 5879 5880
5891 5893 5894 5894 5894 5895 5895 5894 5894 5893 5893 5893 5892 5892 5891 5890 5889 5889 5889 5889 5890 5891 5891 5892 5892 5892 5891 5891 5890 5889 5889 5888 5887 5886 5885 5883 5882 5880 5879 5879 5878 5878 5878 5878 5879 5879 5879 5878 5878
5891 5892 5893 5893 5894 5895 5896 5895 5894 5894 5893 5893 5892 5892 5891 5891 5890 5889 5889 5889 5890 5890 5891 5892 5892 5892 5892 5891 5891 5890 5889 5889 5888 5887 5885 5884 5883 5881 5880 5879 5878 5878 5878 5878 5878 5878 5878 5878 5878
5891 5892 5892 5893 5894 5895 5897 5896 5895 5894 5894 5893 5893 5892 5891 5891 5890 5890 5889 5889 5889 5890 5891 5891 5891 5892 5892 5891 5891 5890 5890 5889 5889 5887 5886 5885 5883 5882 5881 5880 5878 5878 5877 5877 5877 5877 5877 5877 5878
5890 5892 5892 5893 5893 5895 5896 5896 5895 5895 5894 5893 5893 5893 5892 5891 5891 5890 5890 5890 5889 5890 5890 5891 5891 5891 5891 5891 5891 5890 5890 5890 5889 5888 5887 5885 5884 5883 5881 5880 5879 5878 5877 5877 5877 5877 5876 5876 5877
5890 5892 5892 5892 5893 5894 5895 5895 5895 5894 5894 5893 5893 5893 5892 5892 5891 5891 5890 5890 5889 5889 5889 5890 5890 5890 5890 5890 5890 5890 5890 5889 5889 5888 5887 5886 5884 5883 5881 5880 5879 5878 5877 5876 5876 5876 5875 5876 5876
5889 5890 5891 5892 5892 5893 5894 5894 5895 5895 5894 5893 5893 5893 5892 5891 5891 5890 5890 5890 5889 5888 5888 5888 5888 5889 5889 5889 5889 5889 5888 5888 5888 5887 5886 5885 5884 5883 5881 5880 5879 5878 5876 5875 5875 5875 5875 5875 5875
5887 5888 5889 5890 5891 5892 5892 5893 5893 5894 5894 5893 5893 5892 5891 5891 5890 5890 5890 5889 5888 5888 5887 5887 5887 5887 5887 5887 5887 5887 5887 5886 5886 5886 5885 5884 5884 5883 5881 5880 5879 5877 5876 5875 5874 5874 5874 5874 5874
5885 5886 5887 5889 5889 5890 5890 5890 5891 5892 5893 5892 5892 5891 5890 5890 5889 5889 5888 5888 5887 5886 5885 5885 5884 5884 5884 5884 5884 5884 5884 5884 5884 5884 5883 5882 5882 5881 5880 5879 5878 5876 5875 5874 5873 5873 5872 5872 5872
5882 5883 5885 5886 5886 5886 5887 5888 5888 5889 5890 5890 5889 5889 5889 5888 5887 5886 5886 5885 5884 5883 5883 5882 5882 5881 5881 5881 5881 5881 5881 5881 5881 5881 5880 5880 5880 5879 5879 5877 5876 5875 5874 5873 5872 5871 5871 5871 5871
5879 5880 5881 5882 5882 5883 5883 5884 5884 5885 5885 5886 5886 5886 5886 5885 5885 5884 5883 5881 5880 5880 5879 5879 5878 5878 5878 5878 5877 5877 5877 5877 5877 5877 5877 5877 5877 5876 5876 5875 5874 5873 5872 5871 5871 5870 5869 5868 5868
5875 5876 5877 5877 5877 5878 5879 5880 5879 5879 5880 5881 5881 5882 5882 5881 5881 5880 5879 5878 5877 5876 5876 5875 5875 5874 5874 5873 5873 5873 5873 5873 5873 5873 5873 5873 5873 5873 5873 5872 5871 5870 5870 5869 5868 5867 5867 5866 5865
5871 5871 5872 5872 5871 5872 5874 5875 5873 5873 5873 5874 5875 5876 5877 5877 5877 5876 5876 5875 5873 5873 5872 5871 5871 5871 5870 5869 5869 5869 5869 5869 5869 5869 5869 5869 5869 5869 5869 5868 5868 5867 5867 5866 5865 5865 5864 5863 5863
5865 5865 5866 5866 5865 5865 5866 5868 5868 5867 5867 5868 5868 5869 5870 5871 5871 5871 5871 5870 5869 5868 5868 5867 5867 5867 5866 5865 5865 5865 5865 5865 5865 5865 5865 5865 5865 5864 5864 5864 5864 5864 5863 5863 5862 5861 5861 5860 5859
5859 5859 5859 5859 5858 5858 5858 5860 5861 5859 5860 5860 5860 5861 5863 5864 5865 5865 5865 5865 5864 5864 5863 5863 5862 5862 5861 5861 5861 5860 5860 5861 5861 5861 5861 5861 5860 5860 5860 5860 5860 5859 5859 5858 5858 5857 5857 5856 5856
5852 5851 5851 5851 5850 5850 5851 5852 5853 5850 5850 5851 5852 5853 5855 5857 5858 5858 5859 5859 5858 5858 5858 5857 5857 5856 5856 5855 5855 5855 5855 5855 5856 5856 5856 5856 5856 5856 5855 5855 5855 5855 5854 5853 5852 5852 5851 5851 5851
5844 5843 5842 5842 5840 5840 5841 5843 5842 5839 5839 5840 5842 5844 5846 5848 5849 5851 5851 5852 5852 5852 5852 5852 5851 5850 5850 5849 5849 5849 5849 5849 5850 5850 5851 5851 5851 5851 5851 5851 5850 5850 5849 5848 5847 5846 5846 5845 5845
5836 5834 5833 5832 5830 5829 5830 5832 5830 5828 5828 5829 5831 5833 5835 5838 5840 5842 5843 5844 5845 5845 5845 5845 5845 5844 5843 5843 5842 5842 5842 5843 5843 5844 5845 5846 5846 5846 5846 5846 5845 5845 5844 5843 5842 5841 5840 5840 5839
5828 5825 5823 5821 5820 5819 5818 5818 5820 5818 5818 5818 5819 5821 5824 5827 5830 5832 5834 5835 5836 5837 5837 5837 5837 5836 5835 5835 5834 5833 5834 5835 5837 5838 5839 5840 5840 5841 5840 5840 5839 5838 5838 5837 5836 5835 5834 5834 5833
5818 5816 5813 5811 5809 5808 5808 5806 5809 5809 5809 5808 5809 5810 5813 5816 5819 5821 5824 5825 5827 5828 5829 5829 5829 5829 5828 5827 5826 5826 5827 5829 5831 5832 5833 5834 5834 5834 5834 5833 5832 5832 5831 5830 5830 5829 5828 5828 5827
5807 5804 5802 5800 5798 5798 5798 5797 5798 5799 5799 5799 5799 5801 5803 5806 5809 5811 5813 5815 5817 5818 5819 5820 5821 5822 5820 5819 5818 5819 5821 5822 5824 5826 5827 5827 5828 5828 5827 5827 5826 5825 5824 5824 5823 5822 5822 5821 5820
5795 5792 5788 5786 5786 5787 5788 5787 5789 5790 5790 5791 5791 5792 5794 5796 5799 5801 5803 5805 5807 5808 5810 5811 5812 5812 5812 5811 5811 5813 5814 5816 5818 5820 5821 5821 5822 5822 5821 5821 5819 5819 5818 5817 5817 5816 5815 5814 5813
5783 5779 5777 5775 5775 5776 5778 5779 5781 5782 5783 5783 5784 5785 5786 5787 5789 5792 5793 5795 5797 5799 5800 5801 5802 5804 5804 5804 5804 5807 5808 5810 5812 5813 5814 5815 5815 5816 5815 5815 5813 5813 5812 5811 5810 5809 5808 5807 5807
5768 5765 5763 5763 5763 5766 5768 5771 5773 5774 5776 5777 5777 5778 5779 5780 5782 5784 5786 5788 5789 5790 5792 5793 5794 5795 5796 5797 5799 5801 5803 5805 5806 5807 5808 5809 5809 5810 5809 5808 5807 5807 5806 5805 5804 5803 5802 5801 5800
5756 5753 5753 5752 5754 5757 5761 5764 5767 5768 5770 5771 5772 5772 5773 5774 5776 5777 5779 5781 5781 5783 5785 5786 5787 5788 5789 5791 5794 5797 5799 5801 5801 5802 5803 5804 5804 5803 5803 5802 5801 5801 5800 5799 5798 5797 5796 5795 5794
5751 5748 5746 5747 5749 5753 5756 5762 5762 5764 5767 5767 5768 5768 5768 5769 5771 5773 5774 5775 5776 5778 5780 5780 5782 5783 5786 5788 5791 5793 5795 5797 5798 5798 5799 5799 5798 5798 5797 5796 5796 5795 5794 5793 5792 5791 5790 5789 5789
5747 5745 5744 5745 5747 5750 5753 5760 5760 5762 5764 5765 5765 5765 5765 5766 5768 5769 5770 5771 5772 5773 5776 5779 5782 5783 5785 5787 5789 5791 5792 5793 5794 5794 5794 5794 5793 5793 5792 5791 5789 5789 5788 5787 5786 5785 5784 5784 5784